#�ϑ�����,���ϕ���,���ϕ���,�ő啗��,�ő啗����������,�ő�u�ԕ���,�ő�u�ԕ�����������
#(�N����),(m/s)   ,(16����),(m/s)   ,(16����)        ,(m/s)       ,(16����)            
2012/9/20 0:01,0.5,1,0.5,1,1.3,1
2012/9/20 0:02,0.7,1,0.7,1,2.4,1
2012/9/20 0:03,0.7,1,0.7,1,2,1
2012/9/20 0:04,0.8,1,0.8,1,2.1,2
2012/9/20 0:05,0.9,1,0.9,1,1.9,16
2012/9/20 0:06,1,1,1,1,2.1,1
2012/9/20 0:07,1.1,1,1.1,1,1.9,2
2012/9/20 0:08,1.1,1,1.1,1,1.6,1
2012/9/20 0:09,1.2,1,1.2,1,2.2,2
2012/9/20 0:10,1.3,1,1.3,1,1.9,1
2012/9/20 1:38,1.6,10,1.6,10,1.6,10
2012/9/20 1:39,1.8,10,1.8,10,2,10
2012/9/20 1:40,1.6,11,1.8,10,1.9,10
2012/9/20 1:41,1.5,11,1.6,10,1.6,11
2012/9/20 1:42,1.3,11,1.4,10,1.3,12
2012/9/20 1:43,1.1,12,1.3,10,0.8,13
2012/9/20 1:44,1,12,1.1,10,0.5,14
2012/9/20 1:45,0.9,12,1,10,0.6,15
2012/9/20 1:46,0.8,12,0.8,10,0.5,14
2012/9/20 1:47,0.7,12,0.7,10,0.8,12
2012/9/20 1:48,0.7,13,0.7,10,1.1,15
2012/9/20 1:49,0.7,13,0.7,10,1,16
2012/9/20 1:50,0.6,14,0.6,11,1,16
2012/9/20 1:51,0.5,14,0.6,11,0.5,1
2012/9/20 1:52,0.4,14,0.5,12,0.9,16
2012/9/20 1:53,0.4,15,0.4,12,1.1,15
2012/9/20 1:54,0.4,15,0.4,12,0.6,15
2012/9/20 1:55,0.4,15,0.5,12,0.5,14
2012/9/20 1:56,0.4,15,0.4,12,0.4,16
2012/9/20 1:57,0.5,16,0.5,13,0.5,16
2012/9/20 1:58,0.4,16,0.5,13,0.8,16
2012/9/20 1:59,0.4,16,0.4,13,0.6,16
2012/9/20 2:00,0.4,16,0.4,14,0.9,1
2012/9/20 2:01,0.4,16,0.4,14,0.9,1
2012/9/20 2:02,0.4,16,0.4,15,0.5,16
2012/9/20 2:03,0.4,16,0.4,15,1,1
2012/9/20 2:04,0.4,16,0.4,15,1.1,16
2012/9/20 2:05,0.5,16,0.5,15,1.4,1
2012/9/20 2:06,0.6,1,0.6,1,1.6,1
2012/9/20 2:07,0.6,1,0.6,1,1.5,16
2012/9/20 2:08,0.7,1,0.7,1,1.6,1
2012/9/20 2:09,0.8,1,0.8,1,1.5,1
2012/9/20 2:10,0.8,1,0.8,1,1,1
2012/9/20 2:11,0.8,1,0.8,1,0.8,16
2012/9/20 2:12,0.8,1,0.8,1,1.1,16
2012/9/20 2:13,0.9,16,0.9,1,1.4,15
2012/9/20 2:14,0.9,16,0.9,1,1.8,16
2012/9/20 3:35,0.8,1,0.8,1,0.8,16
2012/9/20 3:36,0.3,1,0.7,1,0.8,1
2012/9/20 3:37,0.2,16,0.3,1,0.6,16
2012/9/20 3:38,0.3,16,0.3,1,0.9,16
2012/9/20 3:39,0.2,16,0.3,1,0.3,16
2012/9/20 3:40,0.2,1,0.2,1,0,2
2012/9/20 3:41,0.1,1,0.2,1,0,4
2012/9/20 3:42,0.2,1,0.2,1,0.6,3
2012/9/20 3:43,0.2,2,0.2,1,1,3
2012/9/20 3:44,0.3,2,0.3,1,1.5,3
2012/9/20 3:45,0.5,2,0.5,1,1.8,3
2012/9/20 3:46,0.6,2,0.6,2,2,3
2012/9/20 3:47,0.7,3,0.7,2,1.9,3
2012/9/20 3:48,0.8,3,0.8,3,1.8,3
2012/9/20 3:49,0.9,3,0.9,3,1.6,3
2012/9/20 3:50,1,3,1,3,1.6,3
2012/9/20 3:51,1.1,3,1.1,3,0.8,3
2012/9/20 3:52,1.1,3,1.1,3,0.6,1
2012/9/20 3:53,1,3,1.1,3,0.4,16
2012/9/20 3:54,0.9,3,1,3,0.1,1
2012/9/20 3:55,0.7,2,0.9,3,0.3,1
2012/9/20 3:56,0.6,2,0.7,3,1,16
2012/9/20 3:57,0.5,2,0.6,3,1,15
2012/9/20 3:58,0.4,1,0.5,3,1,15
2012/9/20 3:59,0.4,1,0.4,3,0.8,15
2012/9/20 4:00,0.3,1,0.4,3,0.6,1
2012/9/20 4:01,0.3,16,0.3,3,0.5,1
2012/9/20 4:02,0.3,16,0.3,3,0.5,16
2012/9/20 4:03,0.3,1,0.3,3,0.3,4
2012/9/20 4:04,0.3,1,0.3,2,0.3,4
2012/9/20 4:05,0.3,1,0.3,2,0.6,6
2012/9/20 4:06,0.3,2,0.3,2,0.8,6
2012/9/20 4:07,0.3,2,0.3,2,0.6,2
2012/9/20 4:08,0.3,3,0.3,1,0.6,4
2012/9/20 4:09,0.2,3,0.3,1,0.1,1
2012/9/20 4:10,0.2,3,0.2,16,0.4,3
2012/9/20 4:11,0.2,3,0.2,16,0.4,15
2012/9/20 4:12,0.2,2,0.2,1,0.5,13
2012/9/20 4:13,0.2,2,0.2,1,0.1,14
2012/9/20 4:14,0.2,1,0.2,1,0.3,12
2012/9/20 4:15,0.2,16,0.2,1,0.1,12
2012/9/20 4:16,0.1,15,0.1,2,0.1,9
2012/9/20 4:17,0.1,14,0.1,2,0.1,10
2012/9/20 4:18,0.1,13,0.1,3,0.1,11
2012/9/20 4:19,0.1,12,0.1,3,0.4,9
2012/9/20 4:20,0.1,12,0.1,3,0.4,9
2012/9/20 4:21,0.1,12,0.1,3,0.4,13
2012/9/20 4:22,0,11,0.1,2,0.1,15
2012/9/20 4:23,0,11,0,2,0.1,12
2012/9/20 4:24,0.1,11,0.1,1,0.6,11
2012/9/20 4:25,0.1,11,0.1,16,0.8,12
2012/9/20 4:26,0.1,12,0.1,15,0.5,12
2012/9/20 4:27,0.2,12,0.2,12,0.9,14
2012/9/20 4:28,0.3,12,0.3,12,1.3,15
2012/9/20 4:29,0.3,13,0.3,12,1.1,15
2012/9/20 4:30,0.4,14,0.4,13,1.6,16
2012/9/20 4:31,0.5,14,0.5,14,1.5,16
2012/9/20 4:32,0.7,14,0.7,14,1.8,16
2012/9/20 4:33,0.7,15,0.7,14,1.3,16
2012/9/20 4:34,0.8,15,0.8,15,1.3,16
2012/9/20 4:35,0.9,15,0.9,15,1.3,16
2012/9/20 4:36,0.9,16,0.9,15,1.3,1
2012/9/20 5:57,0,16,0,16,0.1,16
2012/9/20 5:58,0,1,0,16,0.1,16
2012/9/20 5:59,0,16,0,16,0,1
2012/9/20 6:00,0,16,0,16,0.1,6
2012/9/20 6:01,0,12,0,16,0.4,12
2012/9/20 6:02,0.1,12,0.1,12,0.4,11
2012/9/20 6:03,0.1,12,0.1,12,0.4,13
2012/9/20 6:04,0.1,12,0.1,12,0,12
2012/9/20 6:05,0.1,11,0.1,12,0.4,9
2012/9/20 6:06,0.1,10,0.1,12,0.1,8
2012/9/20 6:07,0.1,10,0.1,12,0.5,7
2012/9/20 6:08,0.1,10,0.1,12,0.3,2
2012/9/20 6:09,0.1,9,0.1,12,0.1,14
2012/9/20 6:10,0.1,10,0.1,12,0.3,15
2012/9/20 6:11,0.1,10,0.1,12,0.4,14
2012/9/20 6:12,0.1,10,0.1,12,0.3,9
2012/9/20 6:13,0.1,10,0.1,12,0.3,12
2012/9/20 6:14,0.1,10,0.1,12,0.8,9
2012/9/20 6:15,0.1,10,0.1,11,0.8,8
2012/9/20 6:16,0.2,10,0.2,10,1,8
2012/9/20 6:17,0.2,11,0.2,10,0.6,8
2012/9/20 6:18,0.2,10,0.2,10,0.1,4
2012/9/20 6:19,0.2,10,0.2,10,0.4,9
2012/9/20 6:20,0.2,10,0.2,10,0.9,9
2012/9/20 6:21,0.2,9,0.2,10,0.9,9
2012/9/20 6:22,0.3,9,0.3,9,1.3,10
2012/9/20 6:23,0.4,9,0.4,9,1.1,10
2012/9/20 6:24,0.4,9,0.4,9,0.8,12
2012/9/20 6:25,0.3,9,0.3,9,0.9,10
2012/9/20 6:26,0.3,9,0.3,9,0.3,6
2012/9/20 6:27,0.3,9,0.3,9,0.1,5
2012/9/20 6:28,0.3,9,0.3,9,0.6,6
2012/9/20 8:28,0.8,8,0.8,8,0.8,8
2012/9/20 8:29,1.1,7,1.1,7,1.3,7
2012/9/20 8:30,0.9,7,1.1,7,1.3,6
2012/9/20 8:31,0.9,8,0.9,7,1.5,8
2012/9/20 8:32,0.8,8,0.9,7,1.4,7
2012/9/20 8:33,0.6,8,0.7,7,0.3,9
2012/9/20 8:34,0.6,8,0.6,7,0.9,9
2012/9/20 8:35,0.5,9,0.6,7,0.5,7
2012/9/20 8:36,0.5,9,0.5,7,0.6,7
2012/9/20 8:37,0.5,9,0.5,7,0.6,9
2012/9/20 8:38,0.4,9,0.5,7,0.8,9
2012/9/20 8:39,0.4,9,0.4,7,0.9,11
2012/9/20 8:40,0.4,10,0.4,8,1.3,11
2012/9/20 8:41,0.4,10,0.4,8,1.5,11
2012/9/20 8:42,0.4,10,0.4,8,1.3,9
2012/9/20 8:43,0.5,10,0.5,8,1.9,11
2012/9/20 8:44,0.6,10,0.6,8,2.1,10
2012/9/20 8:45,0.7,10,0.7,10,1.1,11
2012/9/20 8:46,0.7,10,0.7,10,1,10
2012/9/20 8:47,0.7,10,0.7,10,1.5,7
2012/9/20 8:48,0.7,10,0.7,10,0.8,8
2012/9/20 8:49,0.8,10,0.8,10,1.3,8
2012/9/20 8:50,0.8,10,0.8,10,1.8,8
2012/9/20 8:51,0.8,9,0.8,10,1.1,6
2012/9/20 8:52,0.8,9,0.8,10,1,8
2012/9/20 8:53,0.8,9,0.8,10,2.1,9
2012/9/20 8:54,0.8,9,0.8,10,1.6,8
2012/9/20 8:55,0.8,9,0.8,10,2.4,9
2012/9/20 8:56,0.9,8,0.9,9,2.4,9
2012/9/20 8:57,0.8,9,0.9,9,1.1,8
2012/9/20 8:58,1,8,1,8,2.1,8
2012/9/20 8:59,1.1,9,1.1,9,1.9,8
2012/9/20 9:00,1,9,1.1,9,1.4,9
2012/9/20 9:01,1,9,1,9,2.2,9
2012/9/20 9:02,1.2,9,1.2,9,2.9,8
2012/9/20 9:03,1.2,9,1.2,9,2.1,8
2012/9/20 9:04,1.2,9,1.3,9,1.8,8
2012/9/20 9:05,1.2,9,1.3,9,2.4,8
2012/9/20 9:06,1.3,9,1.3,9,2.4,9
2012/9/20 9:07,1.3,9,1.3,9,2.2,9
2012/9/20 9:08,1.3,9,1.3,9,2.1,9
2012/9/20 9:09,1.3,9,1.3,9,1.6,9
2012/9/20 9:10,1.3,9,1.3,9,1.5,9
2012/9/20 9:11,1.3,9,1.3,9,2,8
2012/9/20 9:12,1.3,9,1.3,9,2.5,8
2012/9/20 9:13,1.2,9,1.3,9,1.9,9
2012/9/20 9:14,1.2,9,1.2,9,1.5,8
2012/9/20 9:15,1.2,9,1.2,9,2,8
2012/9/20 9:16,1.1,9,1.2,9,1.3,11
2012/9/20 9:17,1.1,9,1.1,9,0.9,10
2012/9/20 9:18,1,9,1.1,9,1.3,6
2012/9/20 9:19,1,8,1,9,2.2,8
2012/9/20 9:20,1,8,1,9,2.2,8
2012/9/20 9:21,1,8,1,9,2.1,9
2012/9/20 9:22,1,8,1.1,9,2.2,8
2012/9/20 9:23,1.1,8,1.1,9,2.2,7
2012/9/20 12:42,1.5,5,1.5,5,1.8,4
2012/9/20 12:43,0.8,4,1.5,5,1.8,4
2012/9/20 12:44,0.4,6,0.7,5,1,11
2012/9/20 12:45,0.7,7,0.7,5,2.2,9
2012/9/20 12:46,1,8,1,5,2.7,7
2012/9/20 12:47,1.1,8,1.1,5,1.8,9
2012/9/20 12:48,1,8,1.1,5,1.5,10
2012/9/20 12:49,0.9,9,1,5,1.8,9
2012/9/20 12:50,0.9,9,1,5,2.2,9
2012/9/20 12:51,0.9,8,0.9,5,1.9,8
2012/9/20 12:52,1,8,1,5,2.1,9
2012/9/20 13:15,2.5,8,2.5,8,2.5,8
2012/9/20 13:16,1.7,8,2.2,8,2.6,8
2012/9/20 13:17,1.8,7,1.8,8,2.7,7
2012/9/20 13:18,1.7,6,1.8,8,1.9,5
2012/9/20 13:19,1.6,6,1.7,8,2.4,3
2012/9/20 13:20,1.5,6,1.6,8,1.4,3
2012/9/20 13:21,1.4,6,1.5,8,1.3,7
2012/9/20 13:22,1.3,6,1.4,8,1.8,8
2012/9/20 13:23,1.2,6,1.2,8,1.8,11
2012/9/20 13:24,1.1,7,1.2,8,2.7,7
2012/9/20 13:25,1.2,7,1.2,8,3,7
2012/9/20 13:26,1.1,7,1.2,8,1.9,7
2012/9/20 13:27,0.9,7,1.1,7,0.6,9
2012/9/20 13:28,1,8,1,6,3.9,10
2012/9/20 13:29,1,8,1,6,2.5,8
2012/9/20 13:30,1.1,8,1.1,6,2.6,10
2012/9/20 13:31,1.1,9,1.1,6,2.4,8
2012/9/20 13:32,1.2,9,1.2,6,2.2,10
2012/9/20 13:33,1.3,9,1.3,9,1.3,10
2012/9/20 13:34,1.3,9,1.3,9,2.9,8
2012/9/20 13:35,1.2,9,1.3,9,2.6,9
2012/9/20 13:36,1.2,9,1.2,9,1,6
2012/9/20 13:37,1.3,9,1.3,9,1,7
2012/9/20 13:38,1.2,9,1.3,9,1.8,9
2012/9/20 13:39,1.2,9,1.2,9,2.1,10
2012/9/20 13:40,1,9,1.1,9,1.3,5
2012/9/20 13:41,1.1,8,1.1,9,2.9,9
2012/9/20 13:42,1.1,8,1.1,9,2.9,9
2012/9/20 13:43,1.1,9,1.1,9,1.9,10
2012/9/20 13:44,1.1,8,1.1,9,1.4,7
2012/9/20 13:45,1,8,1.1,9,1.8,6
2012/9/20 13:46,1,8,1,9,1,7
2012/9/20 13:47,1.1,8,1.1,9,3.5,5
2012/9/20 13:48,1.1,8,1.1,9,2.5,9
2012/9/20 13:49,1.2,8,1.2,8,2.5,9
2012/9/20 13:50,1.3,7,1.3,7,3.6,8
2012/9/20 13:51,1.3,7,1.3,7,2.9,5
2012/9/20 13:52,1.3,7,1.3,7,2.6,5
2012/9/20 13:53,1.2,6,1.2,7,1.1,3
2012/9/20 13:54,1.3,6,1.3,7,2.4,9
2012/9/20 13:55,1.3,7,1.3,7,2.6,8
2012/9/20 13:56,1.4,7,1.4,7,1.4,5
2012/9/20 13:57,1.4,6,1.4,7,2.5,5
2012/9/20 13:58,1.5,6,1.5,6,2.7,5
2012/9/20 13:59,1.5,6,1.5,6,2.1,5
2012/9/20 14:00,1.5,5,1.5,6,2.1,5
2012/9/20 14:01,1.4,5,1.5,6,2.4,6
2012/9/20 14:02,1.4,5,1.4,6,1.5,5
2012/9/20 14:03,1.3,5,1.4,6,1.1,5
2012/9/20 14:04,1.2,5,1.3,6,0.4,8
2012/9/20 14:05,1.1,4,1.2,6,0.8,13
2012/9/20 14:26,1.9,1,1.9,1,1.9,2
2012/9/20 14:27,0.9,1,1.9,1,1.9,2
2012/9/20 14:28,1.1,2,1.1,1,1.9,3
2012/9/20 14:29,1.2,2,1.3,1,2.6,3
2012/9/20 14:30,1.4,2,1.4,1,2.9,3
2012/9/20 14:31,1.5,2,1.5,1,3.1,2
2012/9/20 14:32,1.4,2,1.5,1,2.1,1
2012/9/20 14:33,1.4,2,1.4,1,1.6,1
2012/9/20 14:34,1.4,2,1.4,1,1.8,4
2012/9/20 14:35,1.4,2,1.4,1,2,3
2012/9/20 14:36,1.4,3,1.4,1,2.2,3
2012/9/20 14:37,1.4,3,1.4,2,2.2,2
2012/9/20 14:51,0.6,9,0.6,9,0.8,11
2012/9/20 15:19,3.8,3,3.8,3,3.8,3
2012/9/20 15:20,2.6,5,3.8,3,3.8,3
2012/9/20 15:21,3.1,4,3.1,3,4.7,2
2012/9/20 15:22,2.9,4,3.1,3,3.7,3
2012/9/20 15:23,2.7,3,2.9,3,3.1,3
2012/9/20 15:24,2.5,4,2.7,3,3.1,5
2012/9/20 15:25,2.5,4,2.5,3,3.5,3
2012/9/20 15:26,2.6,4,2.6,3,4.2,3
2012/9/20 15:27,2.6,4,2.6,3,3.6,5
2012/9/20 15:28,2.5,4,2.5,3,3,3
2012/9/20 15:29,2.5,4,2.5,3,3.6,3
2012/9/20 15:30,2.5,3,2.5,4,3.7,3
2012/9/20 15:31,2.4,3,2.5,4,3.1,4
2012/9/20 15:32,2.2,3,2.3,4,2.4,3
2012/9/20 15:33,2.2,3,2.2,3,3,3
2012/9/20 15:34,2.2,3,2.2,4,2.9,3
2012/9/20 15:35,2.2,3,2.2,4,2.9,3
2012/9/20 15:36,2.1,3,2.2,4,2.9,3
2012/9/20 15:37,2,3,2.1,4,2.6,3
2012/9/20 15:38,2,3,2.1,4,2.4,4
2012/9/20 15:39,1.9,3,2,4,2.2,4
2012/9/20 15:40,1.8,3,1.9,3,2.5,3
2012/9/20 15:41,1.8,3,1.8,3,2.4,3
2012/9/20 15:42,1.8,3,1.8,3,2.5,4
2012/9/20 15:43,1.8,3,1.8,3,3,4
2012/9/20 15:44,1.8,3,1.8,3,2.6,3
2012/9/20 15:45,1.8,3,1.8,3,2.4,3
2012/9/20 15:46,1.8,4,1.8,3,2.6,3
2012/9/20 15:47,1.7,4,1.7,3,2,3
2012/9/20 15:48,1.7,4,1.7,3,2.2,4
2012/9/20 16:29,1.6,16,1.6,16,1.8,16
2012/9/20 16:30,1.5,16,1.7,16,1.8,16
2012/9/20 16:31,1.5,16,1.6,16,2.1,16
2012/9/20 16:32,1.8,16,1.8,16,2.9,16
2012/9/20 16:33,1.8,16,1.8,16,2.2,16
2012/9/20 16:34,1.8,16,1.8,16,2.4,15
2012/9/20 16:35,1.7,16,1.7,16,2,16
2012/9/20 16:36,1.7,16,1.7,16,2.1,16
2012/9/20 16:37,1.6,16,1.7,16,1.9,16
2012/9/20 16:38,1.6,16,1.6,16,2.2,16
2012/9/20 16:39,1.5,16,1.6,16,1.5,16
2012/9/20 16:40,1.5,16,1.5,16,1.3,16
2012/9/20 16:41,1.4,16,1.5,16,1.3,16
2012/9/20 16:42,1.2,16,1.4,16,1.8,15
2012/9/20 16:43,1.2,16,1.2,16,1.5,16
2012/9/20 16:44,1.1,16,1.2,16,2.1,16
2012/9/20 16:45,1.2,16,1.2,16,2.7,16
2012/9/20 16:46,1.3,16,1.3,16,3.1,16
2012/9/20 16:47,1.3,16,1.3,16,2.7,15
2012/9/20 16:48,1.3,16,1.3,16,2.6,16
2012/9/20 16:49,1.4,16,1.4,16,2.2,1
2012/9/20 16:50,1.5,16,1.5,16,2.6,15
2012/9/20 16:51,1.5,16,1.5,16,2.6,15
2012/9/20 16:52,1.7,16,1.7,16,3.7,16
2012/9/20 16:53,1.8,16,1.8,16,3.2,16
2012/9/20 16:54,1.9,16,1.9,16,3.2,16
2012/9/20 16:55,1.9,16,1.9,16,3.2,15
2012/9/20 18:21,1,15,1,15,1,15
2012/9/20 18:22,0.9,15,1.2,15,1.5,15
2012/9/20 18:23,0.9,15,1,15,1.8,15
2012/9/20 18:24,0.9,15,0.9,15,1.3,15
2012/9/20 18:25,0.9,15,0.9,15,1.8,15
2012/9/20 18:26,1,15,1,15,1.8,15
2012/9/20 18:27,1,15,1,15,1.5,15
2012/9/20 18:28,1,15,1,15,1.6,16
2012/9/20 18:29,1.1,15,1.1,15,1.8,15
2012/9/20 18:30,1.1,15,1.1,15,2,16
2012/9/20 18:31,1.1,15,1.1,15,1.8,16
2012/9/20 18:32,1.2,15,1.2,15,1.6,14
2012/9/20 18:33,1.2,15,1.2,15,2,1
2012/9/20 18:34,1.2,15,1.2,15,1.8,14
2012/9/20 18:35,1.2,15,1.3,15,1.8,16
2012/9/20 18:36,1.2,15,1.2,15,1.5,15
2012/9/20 18:37,1.2,15,1.2,15,2.2,16
2012/9/20 18:38,1.2,15,1.3,15,2.5,16
2012/9/20 18:39,1.2,15,1.2,15,1.3,16
2012/9/20 18:40,1.1,15,1.2,15,1.8,16
2012/9/20 18:41,1.1,15,1.1,15,1.6,15
2012/9/20 19:02,1,16,1,16,1.3,16
2012/9/20 19:03,1,16,1,16,1.4,16
2012/9/20 19:04,1.5,15,1.5,15,2.6,15
2012/9/20 19:05,1.6,15,1.6,15,2.7,16
2012/9/20 19:06,1.7,15,1.7,15,3,15
2012/9/20 19:07,1.7,15,1.8,15,2.6,15
2012/9/20 19:08,1.7,15,1.7,15,2.1,15
2012/9/20 19:09,1.7,15,1.7,15,2.7,15
2012/9/20 19:10,1.6,15,1.7,15,1.5,16
2012/9/20 19:11,1.5,15,1.6,15,1.4,2
2012/9/20 19:12,1.4,15,1.5,15,0.8,16
2012/9/20 19:13,1.3,15,1.4,15,0.6,13
2012/9/20 19:14,1.2,15,1.3,15,0.9,11
2012/9/20 19:15,1.1,14,1.2,15,1.1,10
2012/9/20 19:16,1.1,14,1.1,15,1.9,9
2012/9/20 19:17,1,13,1,15,2.4,10
2012/9/20 19:18,1,13,1,15,1.8,12
2012/9/20 19:19,0.9,12,1,15,2,12
2012/9/20 19:20,1,12,1,15,1.5,11
2012/9/20 19:21,1,12,1,15,1.3,11
2012/9/20 19:22,1,11,1,15,0.6,10
2012/9/20 19:23,1,11,1,15,0.9,1
2012/9/20 19:24,0.9,12,0.9,15,1,1
2012/9/20 19:25,0.9,12,0.9,14,1.1,1
2012/9/20 19:26,0.9,13,0.9,14,2,1
2012/9/20 20:43,0.9,16,0.9,16,1.1,16
2012/9/20 20:44,0.6,1,0.9,16,1.1,16
2012/9/20 20:45,0.6,1,0.6,16,1,2
2012/9/20 20:46,0.6,2,0.6,16,1,2
2012/9/20 20:47,0.7,2,0.7,16,1.1,2
2012/9/20 20:48,0.7,2,0.7,16,1.9,2
2012/9/20 20:49,0.7,2,0.8,16,1.6,16
2012/9/20 20:50,0.6,2,0.7,16,0.3,1
2012/9/20 20:51,0.5,1,0.6,16,0.1,13
2012/9/20 20:52,0.5,1,0.5,16,1,14
2012/9/20 20:53,0.5,16,0.5,16,1.4,14
2012/9/20 20:54,0.5,16,0.5,2,0.8,14
2012/9/20 20:55,0.5,15,0.6,2,0.8,16
2012/9/20 20:56,0.5,15,0.5,2,0.3,15
2012/9/20 20:57,0.4,15,0.5,2,0.5,15
2012/9/20 20:58,0.3,14,0.4,2,0.4,14
2012/9/20 20:59,0.3,15,0.3,2,0.8,1
2012/9/20 21:00,0.3,15,0.3,2,1.4,14
2012/9/20 21:01,0.4,14,0.4,16,1.4,14
2012/9/20 21:02,0.5,15,0.5,16,1.3,14
2012/9/20 21:03,0.5,14,0.5,16,1.1,14
2012/9/20 21:04,0.5,14,0.5,16,0.9,12
2012/9/20 21:05,0.5,14,0.5,15,0.9,12
2012/9/20 21:06,0.5,14,0.5,15,0.8,16
2012/9/20 21:07,0.4,15,0.5,15,0.1,2
2012/9/20 21:08,0.4,15,0.4,15,0.3,5
2012/9/20 21:09,0.4,15,0.4,15,0.8,12
2012/9/20 21:10,0.5,14,0.5,15,1.1,12
2012/9/20 21:11,0.4,13,0.5,15,0.8,11
2012/9/20 21:12,0.4,12,0.4,15,0.9,8
2012/9/20 21:13,0.4,9,0.4,14,0.8,8
2012/9/20 21:14,0.4,7,0.4,14,0.9,5
2012/9/20 21:15,0.4,6,0.4,14,1.1,4
2012/9/20 21:16,0.5,6,0.5,14,1.1,4
2012/9/20 21:17,0.5,6,0.5,14,1,3
2012/9/20 21:18,0.6,6,0.6,6,0.9,3
2012/9/20 21:19,0.6,5,0.6,6,0.9,3
2012/9/20 21:20,0.6,4,0.6,6,0.1,2
2012/9/20 21:21,0.5,4,0.6,6,0.4,11
2012/9/20 21:22,0.5,4,0.5,6,0.5,12
2012/9/20 21:23,0.5,3,0.5,6,0.5,13
2012/9/20 21:24,0.4,1,0.5,6,0.3,14
2012/9/20 21:25,0.3,16,0.4,6,0.1,13
2012/9/20 21:26,0.3,16,0.3,6,0.8,16
2012/9/20 21:27,0.3,15,0.3,6,0.9,16
2012/9/20 21:28,0.2,14,0.3,6,0.3,13
2012/9/20 21:29,0.2,14,0.2,5,0.9,12
2012/9/20 21:30,0.3,13,0.3,4,0.9,11
2012/9/20 21:31,0.3,13,0.3,4,1,14
2012/9/20 21:32,0.4,14,0.4,4,1.5,16
2012/9/20 21:33,0.3,14,0.4,2,0.3,15
2012/9/20 21:34,0.3,14,0.3,1,0.1,16
2012/9/20 21:35,0.3,15,0.3,13,0,3
2012/9/20 21:36,0.3,15,0.3,13,0,2
2012/9/20 21:37,0.3,15,0.3,13,0.1,12
2012/9/20 21:38,0.3,15,0.3,13,0.8,13
2012/9/20 21:39,0.3,15,0.3,13,0.6,14
2012/9/20 21:40,0.3,15,0.3,13,0.5,14
2012/9/20 21:41,0.3,15,0.3,13,0.6,13
2012/9/20 21:42,0.3,15,0.3,14,1,13
2012/9/20 21:43,0.4,14,0.4,14,1.3,12
2012/9/20 21:44,0.5,14,0.5,14,1.1,13
2012/9/20 21:45,0.5,13,0.5,14,1.3,13
2012/9/20 21:46,0.6,13,0.6,13,0.8,14
2012/9/20 21:47,0.6,13,0.6,13,0.8,14
2012/9/20 21:48,0.7,13,0.7,13,0.9,14
2012/9/20 21:49,0.7,13,0.7,13,0.9,16
2012/9/20 21:50,0.7,13,0.7,13,1,16
2012/9/20 21:51,0.7,14,0.7,13,1.5,15
2012/9/20 21:52,0.7,14,0.7,13,1.4,16
2012/9/20 21:53,0.7,14,0.7,13,1.4,16
2012/9/20 21:54,0.7,14,0.7,13,1.4,15
2012/9/20 21:55,0.8,15,0.8,14,1.5,15
2012/9/20 21:56,0.8,15,0.8,14,1.5,15
2012/9/20 21:57,0.9,15,0.9,15,1.3,16
2012/9/20 21:58,0.9,15,0.9,15,1.1,15
2012/9/20 21:59,0.9,15,0.9,15,1.3,16
2012/9/20 22:00,1,15,1,15,1.5,16
2012/9/20 22:01,1,15,1,15,1.5,16
2012/9/20 22:02,1.1,15,1.1,15,1.9,16
2012/9/20 22:03,1.1,15,1.1,15,1.6,16
2012/9/20 22:04,1.1,15,1.1,15,1.9,16
2012/9/20 22:05,1.1,15,1.1,15,1.8,15
2012/9/20 22:06,1.1,15,1.1,15,2,16
2012/9/20 22:07,1.1,15,1.1,15,1.5,15
2012/9/20 23:14,0,4,0,4,0,4
2012/9/20 23:15,0.2,5,0.2,5,0.5,6
2012/9/20 23:16,0.3,5,0.3,6,0.5,6
2012/9/20 23:17,0.2,6,0.3,6,0.4,7
2012/9/20 23:18,0.3,6,0.3,6,0.6,6
2012/9/20 23:19,0.3,6,0.3,6,0.4,7
2012/9/20 23:20,0.3,7,0.3,6,0.4,7
2012/9/20 23:21,0.2,7,0.3,6,0.5,8
2012/9/20 23:22,0.2,7,0.2,6,0.3,7
2012/9/20 23:23,0.2,7,0.2,6,0.5,8
2012/9/20 23:24,0.2,7,0.2,6,0.4,8
2012/9/20 23:25,0.2,8,0.2,6,0.6,11
2012/9/20 23:26,0.2,8,0.2,5,0.4,10
2012/9/20 23:27,0.2,9,0.2,6,0.3,10
2012/9/20 23:28,0.2,9,0.2,6,0.3,13
2012/9/20 23:29,0.2,10,0.2,6,0.4,13
2012/9/20 23:30,0.2,11,0.2,7,0.1,13
2012/9/20 23:31,0.2,11,0.2,7,0.4,15
2012/9/20 23:32,0.2,12,0.2,7,0.6,2
2012/9/20 23:33,0.2,12,0.2,7,0.8,1
2012/9/20 23:34,0.2,13,0.2,7,1,1
2012/9/20 23:35,0.3,14,0.3,13,0.9,16
2012/9/20 23:36,0.3,14,0.3,13,1,1
2012/9/20 23:37,0.3,15,0.3,13,0.1,5
2012/9/20 23:38,0.3,16,0.3,13,0.3,1
2012/9/20 23:39,0.3,16,0.3,13,0.9,16
2012/9/20 23:40,0.4,16,0.4,16,1.1,15
2012/9/20 23:41,0.4,1,0.4,16,1.3,16
2012/9/20 23:42,0.5,1,0.5,1,1.6,16
2012/9/20 23:43,0.5,16,0.5,1,1.1,16
2012/9/20 23:44,0.6,16,0.6,16,1.6,16
2012/9/20 23:45,0.7,16,0.7,16,1.5,16
2012/9/20 23:46,0.7,16,0.7,16,1.1,16
2012/9/20 23:47,0.8,16,0.8,16,1,16
2012/9/20 23:48,0.8,16,0.8,16,0.8,16
2012/9/20 23:49,0.8,15,0.8,16,0.3,14
2012/9/20 23:50,0.7,15,0.8,16,0.3,16
2012/9/20 23:51,0.6,15,0.7,16,0.1,16
2012/9/20 23:52,0.5,15,0.6,16,0.1,10
2012/9/20 23:53,0.5,15,0.5,16,0.8,6
2012/9/20 23:54,0.4,16,0.5,16,0.8,4
2012/9/20 23:55,0.4,1,0.4,16,1,4
2012/9/20 23:56,0.4,2,0.4,16,0.9,3
2012/9/20 23:57,0.3,3,0.4,16,0.9,3
2012/9/20 23:58,0.4,4,0.4,16,0.8,4
2012/9/20 23:59,0.4,4,0.4,15,0.9,3
